[[{"header":{"parameterUnit":"m.s-1","parameterCategory":1,"la1":30.2991,"la2":30.254,"lo1":-89.0895,"lo2":-89.0444,"dy":0.0017,"dx":0.0017,"nx":28,"ny":28,"refTime":"2026-02-01T03:00:00:Z","depth":0,"parameterNumber":2,"parameterNumberName":"U-component_of_WINDS"},"data":[0,0,0,0,0,0,0,0,0,0,0,0,0,0,0,0,0,0,0,0,0,0,0,0,0,0,0,0,0,0,0,0,0,0,0,0,0,0,0,0,0,0,0,0,0,0,0,0,0,0,0,0,0,0,0,0,0,0,2.0928,2.0928,0,2.0953,2.0953,2.0953,2.0951,2.095,2.095,2.0949,2.0973,2.0974,2.0975,0,0,0,0,0,0,0,0,0,0,0,0,0,2.0878,2.0879,2.0928,2.0928,2.0929,2.0953,2.0953,2.0954,2.0951,2.095,2.095,2.0949,2.0973,2.0974,2.0975,0,0,0,0,0,0,0,0,0,0,0,0,0,2.0901,2.0879,2.0928,2.093,2.0931,2.0953,2.0953,2.0954,2.0951,2.095,2.095,2.0949,2.0973,2.0974,2.0976,2.0997,0,0,2.098,2.0981,0,0,0,0,0,0,0,0,2.0899,2.0902,2.093,2.093,2.0931,2.0948,2.0944,2.0968,2.0951,2.0943,2.0949,2.0949,2.0965,2.0967,2.0973,2.0998,2.0999,2.098,2.0981,2.0982,2.0982,0,0,0,0,0,0,0,2.0898,2.0901,2.0938,2.093,2.0931,2.093,2.0932,2.0949,2.0957,2.0944,2.0944,2.0947,2.0966,2.0972,2.0974,2.0999,2.098,2.0982,2.0983,2.0983,2.1043,2.1044,0,0,0,0,0,0,2.0896,2.09,2.0937,2.0939,2.0913,2.0931,2.0934,2.0943,2.0957,2.0959,2.0947,2.0946,2.097,2.0972,2.0975,2.1,2.0982,2.0983,2.0984,2.1043,2.1043,2.1044,0,0,0,0,0,0,2.0895,2.0899,2.0936,2.0919,2.0924,2.0933,2.0943,2.0944,2.095,2.096,2.0961,2.0952,2.0969,2.0973,2.0992,2.1001,2.0984,2.0985,2.1042,2.1043,2.1044,2.1052,0,0,0,0,0,0,2.0893,2.0899,2.0907,2.092,2.0925,2.0952,2.0943,2.0945,2.0953,2.0952,2.0965,2.0966,2.0969,2.0989,2.0993,2.1003,2.0987,2.1041,2.1042,2.1043,2.1051,2.1053,2.1055,0,0,0,0,0,2.0891,2.0908,2.0907,2.0912,2.0935,2.0953,2.0956,2.096,2.0954,2.0962,2.0968,2.0966,2.1,2.0991,2.0995,2.1006,2.104,2.1042,2.1043,2.105,2.1053,2.1055,0,0,0,0,0,0,2.0895,2.0909,2.0909,2.093,2.094,2.0953,2.0963,2.0962,2.0974,2.0973,2.0977,2.0979,2.0999,2.1004,2.0995,2.1028,2.1019,2.1022,2.1023,2.1026,2.1028,2.1025,2.0988,0,0,0,0,0,2.0898,2.0912,2.0924,2.0941,2.0946,2.0954,2.0962,2.0964,2.0974,2.0979,2.0986,2.0997,2.101,2.1018,2.1031,2.1052,2.1055,2.1062,2.1064,2.1066,2.1067,2.1079,2.1082,2.1049,2.1049,2.1049,0,0,2.0904,2.0914,2.0922,2.0942,2.095,2.0964,2.0957,2.0972,2.0982,2.0981,2.0999,2.1005,2.1017,2.1038,2.1047,2.1043,2.1077,2.1068,2.1069,2.107,2.1081,2.1084,2.1087,2.105,2.105,2.105,0,0,2.0923,2.0932,2.0948,2.0957,2.097,2.0975,2.0979,2.0992,2.0996,2.1015,2.1014,2.1027,2.1049,2.1058,2.1065,2.1089,2.1087,2.1094,2.1104,2.1116,2.1119,2.1121,2.1129,2.1132,2.1095,2.1096,2.1096,0,2.0929,2.095,2.0956,2.0971,2.0979,2.098,2.0996,2.1004,2.1021,2.1026,2.1022,2.1051,2.1059,2.1082,2.1088,2.1094,2.1098,2.1091,2.1118,2.112,2.1122,2.113,2.1134,2.1096,2.1096,2.1096,2.1096,0,2.0957,2.0972,2.0983,2.1,2.101,2.1025,2.1033,2.1042,2.1044,2.105,2.1069,2.1079,2.1094,2.11,2.1102,2.1123,2.112,2.1117,2.1108,2.1126,2.1134,2.1137,2.1097,2.1097,2.1097,2.1096,0,0,2.0977,2.0998,2.1002,2.101,2.1025,2.1036,2.1052,2.1068,2.1076,2.1088,2.1101,2.1121,2.1118,2.1127,2.1129,2.114,2.1158,2.1135,2.1136,2.1139,2.1183,2.1185,2.1188,2.1158,2.1159,2.1159,2.1182,0,2.0997,2.1025,2.1031,2.1055,2.1069,2.1071,2.1084,2.1096,2.1102,2.1114,2.1121,2.1135,2.1131,2.1136,2.1147,2.1154,2.1167,2.1153,2.117,2.117,2.1166,2.1192,2.1194,2.1214,2.1185,2.1185,2.1186,0,2.1023,2.1037,2.1062,2.1077,2.1083,2.1095,2.111,2.1123,2.1136,2.114,2.115,2.1152,2.1169,2.1161,2.1184,2.1173,2.1181,2.1186,2.1187,2.1188,2.1178,2.1193,2.1221,2.1224,2.119,2.119,2.119,0,2.1034,2.1059,2.1078,2.1084,2.1102,2.1111,2.1119,2.1131,2.114,2.1154,2.116,2.1175,2.1183,2.1194,2.12,2.1194,2.1223,2.1215,2.1226,2.1226,2.1231,2.123,2.126,2.1238,2.1238,2.1237,2.1237,0,2.1055,2.107,2.1083,2.1094,2.1112,2.1119,2.1136,2.1144,2.1156,2.1168,2.1171,2.1183,2.1191,2.1205,2.121,2.1228,2.1232,2.1235,2.1236,2.1234,2.1234,2.1238,2.1236,2.1238,2.1238,2.1238,2.1238,0,2.1069,2.1078,2.1099,2.1115,2.1119,2.1131,2.1145,2.1156,2.1163,2.118,2.1184,2.1195,2.1211,2.1219,2.1238,2.1242,2.1262,2.1263,2.1258,2.1258,2.1268,2.1267,2.1301,2.1306,2.1281,2.1281,2.1282,0,2.1081,2.1093,2.1111,2.112,2.1128,2.1143,2.1153,2.1161,2.1171,2.1188,2.1197,2.1213,2.1227,2.1252,2.1262,2.1277,2.1277,2.1288,2.1279,2.1277,2.1276,2.1275,2.1276,2.1289,2.1289,2.129,2.129,0,2.1101,2.1106,2.112,2.1136,2.1148,2.1161,2.1174,2.1181,2.1191,2.1203,2.1219,2.123,2.1251,2.1267,2.1283,2.1291,2.1292,2.1293,2.1296,2.1294,2.129,2.1292,2.1261,2.1292,2.1291,2.1291,2.1291,2.1291,2.1114,2.1126,2.114,2.1156,2.1167,2.1179,2.1191,2.12,2.1214,2.1232,2.1236,2.1254,2.1268,2.129,2.1299,2.1312,2.131,2.1315,2.1316,2.1316,2.1317,2.1289,2.1316,2.1316,2.1315,2.1315,2.1315,0,2.1134,2.1144,2.1159,2.1177,2.119,2.1192,2.1206,2.1216,2.1232,2.1245,2.1259,2.1279,2.1295,2.1306,2.1323,2.1332,2.1333,2.1336,2.1334,2.1336,2.1318,2.1313,2.1335,2.1335,2.1335,2.1335,2.1335,2.1335,2.1146,2.1165,2.1171,2.1196,2.1206,2.1224,2.1232,2.1243,2.1254,2.1276,2.129,2.1297,2.131,2.1328,2.1343,2.1346,2.1351,2.1354,2.1357,2.134,2.1338,2.1335,2.1331,2.1356,2.1356,2.1374,2.1374,2.1374]},{"header":{"parameterUnit":"m.s-1","parameterCategory":1,"la1":30.2991,"la2":30.254,"lo1":-89.0895,"lo2":-89.0444,"dy":0.0017,"dx":0.0017,"nx":28,"ny":28,"refTime":"2026-02-01T03:00:00:Z","depth":0,"parameterNumber":3,"parameterNumberName":"V-component_of_WINDS"},"data":[0,0,0,0,0,0,0,0,0,0,0,0,0,0,0,0,0,0,0,0,0,0,0,0,0,0,0,0,0,0,0,0,0,0,0,0,0,0,0,0,0,0,0,0,0,0,0,0,0,0,0,0,0,0,0,0,0,0,-7.0866,-7.0868,0,-7.1073,-7.1075,-7.1078,-7.1031,-7.1027,-7.1023,-7.102,-7.1227,-7.1236,-7.1245,0,0,0,0,0,0,0,0,0,0,0,0,0,-7.0427,-7.0435,-7.0866,-7.0868,-7.0871,-7.1073,-7.1075,-7.1078,-7.1032,-7.1027,-7.1022,-7.1018,-7.1224,-7.1235,-7.1246,0,0,0,0,0,0,0,0,0,0,0,0,0,-7.0624,-7.0438,-7.0865,-7.0872,-7.0875,-7.1072,-7.1075,-7.1079,-7.1033,-7.1027,-7.1021,-7.1016,-7.1221,-7.1234,-7.1248,-7.1449,0,0,-7.129,-7.1296,0,0,0,0,0,0,0,0,-7.0613,-7.064,-7.0869,-7.0872,-7.0876,-7.102,-7.0997,-7.1203,-7.1034,-7.0973,-7.102,-7.1013,-7.1163,-7.1181,-7.1233,-7.1459,-7.1468,-7.1291,-7.1299,-7.1305,-7.1309,0,0,0,0,0,0,0,-7.0599,-7.0631,-7.0948,-7.0872,-7.0876,-7.0864,-7.0885,-7.1035,-7.1098,-7.0978,-7.0975,-7.1,-7.1164,-7.1219,-7.1237,-7.1471,-7.129,-7.1303,-7.1311,-7.1317,-7.1873,-7.1879,0,0,0,0,0,0,-7.0583,-7.062,-7.0941,-7.0954,-7.0727,-7.0876,-7.0901,-7.098,-7.1096,-7.1108,-7.1005,-7.0997,-7.1199,-7.1221,-7.1244,-7.1488,-7.1305,-7.1318,-7.1326,-7.1866,-7.1874,-7.1881,0,0,0,0,0,0,-7.0574,-7.0612,-7.0933,-7.0786,-7.0826,-7.089,-7.0979,-7.0987,-7.1043,-7.1117,-7.1127,-7.1051,-7.1195,-7.1225,-7.1399,-7.1495,-7.1324,-7.1337,-7.1859,-7.1869,-7.1878,-7.1977,0,0,0,0,0,0,-7.0561,-7.0609,-7.0687,-7.0788,-7.0834,-7.1086,-7.0985,-7.0995,-7.1067,-7.1059,-7.1163,-7.1174,-7.1193,-7.1379,-7.1413,-7.151,-7.1347,-7.185,-7.1863,-7.1875,-7.1966,-7.1989,-7.201,0,0,0,0,0,-7.0546,-7.0706,-7.0692,-7.0731,-7.0933,-7.1091,-7.1117,-7.1137,-7.1075,-7.1153,-7.1201,-7.1171,-7.1479,-7.1397,-7.1435,-7.1538,-7.1844,-7.186,-7.1874,-7.1956,-7.1985,-7.2009,0,0,0,0,0,0,-7.0613,-7.0719,-7.0704,-7.0902,-7.0988,-7.1083,-7.1183,-7.1166,-7.127,-7.1258,-7.1276,-7.13,-7.1478,-7.1525,-7.1432,-7.1739,-7.1653,-7.1675,-7.1702,-7.173,-7.1751,-7.1736,-7.1359,0,0,0,0,0,-7.0651,-7.0772,-7.0857,-7.1024,-7.1068,-7.1118,-7.1188,-7.1195,-7.1284,-7.132,-7.138,-7.1467,-7.1583,-7.1659,-7.177,-7.1972,-7.1994,-7.2062,-7.2084,-7.2101,-7.2121,-7.2232,-7.2263,-7.193,-7.193,-7.1929,0,0,-7.0731,-7.0804,-7.0878,-7.1039,-7.1107,-7.123,-7.1149,-7.1283,-7.1374,-7.134,-7.1508,-7.1556,-7.1653,-7.1843,-7.1929,-7.1887,-7.2218,-7.212,-7.2134,-7.2144,-7.225,-7.2281,-7.2309,-7.194,-7.1938,-7.1936,0,0,-7.0939,-7.1006,-7.1153,-7.1222,-7.1326,-7.1358,-7.1393,-7.1491,-7.1522,-7.1692,-7.1669,-7.1777,-7.1976,-7.2047,-7.2109,-7.2345,-7.232,-7.238,-7.2494,-7.2602,-7.2628,-7.2651,-7.2735,-7.2765,-7.2399,-7.2399,-7.24,0,-7.1024,-7.1211,-7.1229,-7.1366,-7.1437,-7.1413,-7.1561,-7.1627,-7.1761,-7.181,-7.1762,-7.2013,-7.2077,-7.2282,-7.234,-7.2391,-7.2431,-7.2368,-7.2623,-7.2646,-7.2668,-7.2749,-7.278,-7.2406,-7.2405,-7.2405,-7.2404,0,-7.131,-7.144,-7.1545,-7.1677,-7.176,-7.1902,-7.1941,-7.2022,-7.2023,-7.206,-7.2233,-7.2309,-7.2435,-7.2484,-7.2485,-7.269,-7.2661,-7.2618,-7.2531,-7.2707,-7.2782,-7.2813,-7.2415,-7.2413,-7.2411,-7.2409,0,0,-7.1566,-7.1708,-7.1746,-7.1806,-7.1919,-7.2019,-7.2158,-7.2283,-7.2353,-7.2446,-7.2563,-7.2733,-7.2694,-7.2765,-7.2773,-7.2868,-7.3049,-7.2813,-7.2815,-7.2854,-7.328,-7.3312,-7.3347,-7.3034,-7.304,-7.3045,-7.3272,0,-7.1785,-7.2033,-7.2055,-7.2277,-7.2397,-7.2376,-7.2498,-7.258,-7.2618,-7.2724,-7.2766,-7.2886,-7.2825,-7.2868,-7.296,-7.3008,-7.3135,-7.2992,-7.3143,-7.3148,-7.3119,-7.3387,-7.3421,-7.3632,-7.3301,-7.3306,-7.331,0,-7.2073,-7.2177,-7.2412,-7.2509,-7.2559,-7.2669,-7.2785,-7.2887,-7.2979,-7.3,-7.308,-7.3076,-7.3218,-7.3126,-7.3323,-7.3225,-7.3287,-7.332,-7.3329,-7.3343,-7.324,-7.3409,-7.3699,-7.3731,-7.3357,-7.3353,-7.335,0,-7.2237,-7.2435,-7.2601,-7.2653,-7.277,-7.2847,-7.2899,-7.2985,-7.3059,-7.316,-7.3208,-7.3324,-7.3387,-7.3476,-7.3503,-7.3434,-7.3699,-7.3609,-7.372,-7.3719,-7.3776,-7.3773,-7.4081,-7.3817,-7.3816,-7.3816,-7.3815,0,-7.2478,-7.2623,-7.2676,-7.2779,-7.294,-7.2963,-7.3121,-7.3168,-7.3246,-7.3356,-7.3344,-7.3448,-7.3477,-7.3586,-7.3607,-7.3767,-7.3795,-7.3815,-7.382,-7.3817,-7.3815,-7.3858,-7.3845,-7.3824,-7.3822,-7.3821,-7.3819,0,-7.2688,-7.273,-7.291,-7.3006,-7.3034,-7.3149,-7.323,-7.3328,-7.3365,-7.3505,-7.3539,-7.3596,-7.3723,-7.3759,-7.3911,-7.3925,-7.4113,-7.4103,-7.4083,-7.4083,-7.4191,-7.4181,-7.4539,-7.4587,-7.4291,-7.4294,-7.4296,0,-7.284,-7.2952,-7.306,-7.3134,-7.319,-7.3309,-7.3384,-7.341,-7.3489,-7.3603,-7.3687,-7.3813,-7.3915,-7.4119,-7.4173,-7.4289,-7.4282,-7.44,-7.43,-7.4294,-7.4284,-7.4278,-7.4289,-7.4419,-7.4422,-7.4425,-7.4427,0,-7.3105,-7.3121,-7.3231,-7.3349,-7.344,-7.3534,-7.3624,-7.3685,-7.3723,-7.3812,-7.3943,-7.4023,-7.4179,-7.4304,-7.4422,-7.4473,-7.4457,-7.4458,-7.449,-7.4488,-7.4472,-7.4482,-7.4135,-7.445,-7.4447,-7.4446,-7.4444,-7.4443,-7.3291,-7.3389,-7.3481,-7.3605,-7.3675,-7.376,-7.3857,-7.3906,-7.4017,-7.4147,-7.4155,-7.4297,-7.4385,-7.4542,-7.46,-7.471,-7.4675,-7.4721,-7.4733,-7.4744,-7.4754,-7.4454,-7.4732,-7.4731,-7.4731,-7.473,-7.473,0,-7.3556,-7.3614,-7.3728,-7.3855,-7.3952,-7.3929,-7.4027,-7.411,-7.4235,-7.432,-7.4421,-7.4571,-7.4693,-7.4757,-7.4877,-7.4953,-7.4948,-7.4984,-7.4978,-7.4991,-7.4778,-7.4739,-7.4985,-7.4985,-7.4985,-7.4985,-7.4985,-7.4985,-7.3705,-7.387,-7.3896,-7.4095,-7.4152,-7.4292,-7.4351,-7.4428,-7.4496,-7.4665,-7.4766,-7.4808,-7.4884,-7.501,-7.512,-7.5135,-7.518,-7.522,-7.5231,-7.5031,-7.5005,-7.498,-7.4944,-7.5229,-7.523,-7.5435,-7.5437,-7.5438]}]]